Regional Weather Roundup
Issued by NWS Wakefield, VA

Home | Current Version | Previous Version | Graphics & Text | Print | Product List | Glossary On
Versions: 1 2 3 4 5 6 7 8 9 10 11 12 13 14 15 16 17 18 19 20 21 22 23 24 25 26 27 28 29 30 31 32 33 34 35 36 37 38 39 40 41 42 43 44 45 46 47 48 49 50
000
ASUS41 KAKQ 270010
RWRAKQ

REGIONAL WEATHER ROUNDUP
NATIONAL WEATHER SERVICE WAKEFIELD VA
700 PM EST WED NOV 26 2014

Note: "fair" indicates few or no clouds below 12,000 feet with no
significant weather and/or obstructions to visibility. * = Denotes
station may not report precipitation (e.g., rain,snow,etc.),
thunder or fog.

VAZ042-051-052>054-056-270100-
NORTHERN VIRGINIA

CITY           SKY/WX    TMP DP  RH WIND       PRES   REMARKS
WASH NATIONAL  LGT RAIN  39  33  79 NW10      29.96S
DULLES         MOCLDY    34  32  92 NW9       29.96S
FORT BELVOIR   CLOUDY    37  34  89 NW8       29.97S
QUANTICO       FLURRIES  37  33  85 N10       29.98S
FREDERICKSBRG* CLOUDY    37  37 100 W5        29.97R
STAFFORD*      CLOUDY    35  35 100 CALM      30.01R
WARRENTON      CLOUDY    36  36 100 CALM      29.96S
CULPEPER*      CLOUDY    36  36 100 CALM      29.97S
MANASSAS*      CLOUDY    36  36 100 NW6       29.97S
LEESBURG*      CLOUDY    36  36 100 N8        29.97F
WINCHESTER     CLOUDY    34  32  93 CALM      29.97S FOG
FRONT ROYAL*   CLOUDY    32  32 100 CALM      29.96S
LURAY*         FOG       34  34 100 CALM      29.97S VSB 1/2
$$

VAZ048-049-060>072-079>083-270100-
CENTRAL AND SOUTH CENTRAL VIRGINIA

CITY           SKY/WX    TMP DP  RH WIND       PRES   REMARKS
RICHMOND       CLOUDY    39  35  86 NW9       29.97R
CHESTERFIELD*  CLOUDY    37  27  65 NW9       29.99R
PETERSBURG*    CLOUDY    39  38  94 NW7       30.00R
HANOVER        CLOUDY    37  35  92 NW9       29.99R
TAPPAHANNOCK*  CLOUDY    38  34  87 NW5       29.96R
QUINTON*       CLOUDY    37  35  94 NW5       29.96R
CHARLOTTSVILLE CLOUDY    37  35  92 SW3       29.96S
GORDONSVILLE*  CLOUDY    35  34  97 CALM      29.96F
ORANGE*        CLOUDY    36  34  93 S3        29.98S
LOUISA*        CLOUDY    36  36 100 CALM      29.96S
BUMPASS*       CLOUDY    35  34  96 CALM      29.98R
FARMVILLE*     CLOUDY    39  39 100 SW5         N/A
CREWE*         CLOUDY    37  36  95 W3        29.99S
FORT PICKETT*  CLOUDY    36  35  98 W5        29.99S
CHASE CITY*    CLOUDY    39  39 100 CALM      30.01R
CLARKSVILLE*   CLOUDY    37  37 100 W3        30.02R
SOUTH HILL*    MOCLDY    37  35  95 W5        30.06R
LAWRENCEVILLE* CLOUDY    37  36  96 W3        29.98S
$$

VAZ088>098-270100-
SOUTHEAST VIRGINIA

CITY           SKY/WX    TMP DP  RH WIND       PRES   REMARKS
NORFOLK        CLOUDY    40  36  86 NW9G17    29.92R
VIRGINIA BEACH CLOUDY    42  37  82 NW17G24   29.91R
NORFOLK NAVAL  CLOUDY    43  37  79 NW15G22   29.95R
WEST POINT*    CLOUDY    40  37  90 NW6       29.96R
SALUDA*        CLOUDY    39  37  91 NW14G20   29.92R
NEWPORT NEWS   CLOUDY    42  36  79 N12G20    29.93R
LANGLEY AFB    CLOUDY    40  40 100 NW14      29.94R
FORT EUSTIS    DRIZZLE   40  40 100 NW12G21   29.93R
WILLIAMSBURG*  CLOUDY    39  39 100 NW8       29.95R
HR EXEC AP*    CLOUDY    39  34  81 NW5       29.96R
FRANKLIN*      CLOUDY    37  37 100 NW8       29.98R
WAKEFIELD      CLOUDY    39  36  89 NW5       29.97R
$$

VAZ020-022-025-037-045-270100-
WEST CENTRAL AND SOUTHWEST VIRGINIA

CITY           SKY/WX    TMP DP  RH WIND       PRES   REMARKS
STAUNTON*        N/A    N/A N/A N/A MISG        N/A
WAYNESBORO*    CLOUDY    32  32 100 CALM      29.96S
HOT SPRINGS VA   N/A    N/A N/A N/A MISG        N/A
LYNCHBURG      CLOUDY    38  38 100 SW3       30.00S
DANVILLE       MOCLDY    39  37  92 SW3       30.03R
SOUTH BOSTON*  CLOUDY    40  39  95 CALM      30.03R
MARTINSVILLE   CLOUDY    40  40 100 CALM      30.05R
ROANOKE        MOCLDY    38  36  92 CALM      30.02R
BLACKSBURG     CLOUDY    37  37 100 CALM      30.00S
DUBLIN*        CLOUDY    38  37  97 SW5       30.00S
MARION*        MOCLDY    37  35  93 SW5       30.00S FOG
HILLSVILLE*      N/A    N/A N/A N/A W3        29.97S
RICHLANDS*     CLOUDY    38  36  94 CALM      29.97S FOG
WISE*          CLOUDY    37  32  81 SW3       29.98S
ABINGDON*      CLEAR     36  34  94 CALM      29.99S FOG
$$

MDZ021>025-VAZ099-100-270100-
SOUTHERN MARYLAND AND THE DELMARVA PENINSULA

CITY           SKY/WX    TMP DP  RH WIND       PRES   REMARKS
PATUXENT RIVER CLOUDY    39  35  86 NW15      29.91S
BAY BRIDGE APT LGT RAIN  37  36  93 NW15G22   29.92F
LEONARDTOWN    CLOUDY    36  34  93 NW6       29.93S
DOVER          LGT RAIN  36  36 100 NW18G28   29.85S
GEORGETOWN     CLOUDY    37  35  92 NW12G20   29.87R
EASTON         RAIN      39  39 100 N13G18    29.94S
CAMBRIDGE      CLOUDY    37  36  93 N13G23    29.88F
SALISBURY      LGT RAIN  39  34  82 N18G32    29.87R
OCEAN CITY     MIX PCPN  37  35  92 NW22G35   29.83R
WALLOPS ISLAND CLOUDY    37  35  92 N20G26    29.87R
ACCOMACK*      CLOUDY    39  36  87 NW22G29   29.88R
$$

NCZ012>017-030>032-270100-
NORTH CENTRAL AND EASTERN NORTH CAROLINA

CITY           SKY/WX    TMP DP  RH WIND       PRES   REMARKS
ROANOKE RAPIDS CLOUDY    37  36  93 NW5       30.01R
RALEIGH        MOCLDY    42  39  89 W3        30.04R
ELIZABETH CITY CLOUDY    44  38  79 NW13G22   29.94R
AHOSKIE*       CLOUDY    38  37  93 CALM      30.00R
EDENTON*       CLOUDY    42  39  88 NW13      29.97R
CURRITUCK*     CLOUDY    41  38  86 W7G17     29.94R
KILL DEVIL HLS CLOUDY    42  40  92 NW17G25   29.91R
MANTEO         CLOUDY    42  39  88 NW13G22   29.93R
CAPE HATTERAS  CLOUDY    46  44  93 NW15G30   29.94R
TARBORO*       CLOUDY    41  38  89 NW7       30.02R
GOLDSBORO      MOCLDY    43  43 100 W8        30.03R
WASHINGTON     CLOUDY    42  38  87 NW5       30.00R
GREENVILLE     CLOUDY    41  39  93 NW3       30.03R
NEW BERN       MOCLDY    47  41  80 NW10      30.02R
WILMINGTON     CLOUDY    49  43  80 NW15      30.05R
$$

VAZ048-270100-
ELSEWHERE

CITY           SKY/WX    TMP DP  RH WIND       PRES   REMARKS
HARRISBURG PA  FLURRIES  34  32  92 NW14      29.94F WCI  25
BALTIMORE      CLOUDY    36  33  89 NW7       29.92F
ANNAPOLIS      CLOUDY    38  35  89 NW13      29.92F
ANDREWS AFB    PTCLDY    36  34  91 NW12      29.93S
PHILADELPHIA   LGT SNOW  36  33  89 NW17      29.87S FOG
WILDWOOD NJ*   CLOUDY    37  32  81 NW13G29   29.81R
HENDERSON NC   LGT RAIN  39  37  91 NW3       30.02R
GREENSBORO     MOCLDY    39  37  92 SW5       30.02R
ROCKY MOUNT    CLOUDY    41  38  89 NW7       30.04R
$$

VAZ100-270100-
MARINE

STATION/POSITION TIME  TEMP    WIND        PRES    WAVE   SWELL
                       AIR SEA DIR/SP/G            HT/PER HT/PER
                 (UTC) (F)     (DEG/KT/KT) (MB)    (FT/S) (FT/S)
CAPE MAY NJ      0000   38 49  320/ 19/ 31 1009.3R
LEWES DE         0000   38 48  330/ 28/ 34 1010.2R
15NM E FENWICK I 0000   43 54              1007.3R  12/ 9
OCEAN-CITY-INLET 0000   38 49  340/ 21/ 26 1009.3R
WACHAPREAGUE VA  0000   39 50  340/  6/ 17 1011.4F
THOMAS POINT MD  0000   38 47  330/ 16/ 18 1013.9F
GOOSES REEF MD   0000   40     350/ 21/ 25 1013.0S
COVE POINT MD    0000   39     350/ 24/ 28 1012.5F
SOLOMONS ISLAND  0000      49                N/A
BISHOPS HEAD MD  0000   39 45  330/ 15/ 21 1011.7R
PINEY POINT MD   0000          360/ 18/ 20   N/A
POTOMAC MD       0000   40     350/ 16/ 21 1011.8F
CAMBRIDGE MD     0000   40 45  350/ 17/ 23 1012.1S
LEWISETTA VA     0000   40 49  350/ 13/ 18 1013.0R
RAPPAHANNOCK LGT 0000          330/ 31/ 34 1012.3R
STINGRAY PT      0000   41     340/ 19/ 23 1013.1R
YORK RVR RNG VA  0000   41     350/ 22/ 26 1012.3R
YORKTOWN VA      0000      51  330/ 14/ 15 1013.0R
JAMESTOWN VA     0000   38     340/ 14/ 17   N/A
DOMINION TERM VA 0000   41     330/  8/ 17 1013.3R
KIPTOPEKE VA     0000      56  340/ 25/ 29   N/A
CHES BAY BRIDGE  0000   42 52  310/ 22/ 26 1012.5R
CAPE HENRY VA    0000   42     310/ 23/ 28 1011.6R
CHESAPEAKE LGHT  2300   42     320/ 32/ 35 1011.6R
WILLOUBY STN VA  0000   40     330/ 16/ 18 1012.0R
S CRANEY ISL VA  0000          290/  9/ 16 1013.5R
CAPE HENRY BUOY  0000      56                N/A     8/ 8   2/11
1ST LANDING BUOY 0000   43     320/ 23/ 27 1012.1R
CAPE CHARLES BUO 0000      55                N/A     7/ 8   5/ 8
64NM E OF VA BCH 0000   49 62  310/ 29/ 33 1008.5R  11/ 9
DUCK PIER NC     0000   43 56  310/ 20/ 26 1012.1R
44100 DUCK FRF   0000      59                N/A     9/ 8   2/11
44056 DUCK FRF   0000      58                N/A     7/ 8   2/11
OREGON INLET NC  0000   44 59  300/ 21/ 26 1012.8R
HATTERAS NC      0000      63  300/ 24/ 28 1014.2R
DIAMOND SHLS NC  0000   51     300/ 21/ 25 1013.0R  10/ 9   7/ 9
CAPE LOOKOUT NC  2300   50     300/ 22/ 26 1014.2R
$$



USA.gov is the U.S. government's official web portal to all federal, state and local government web resources and services.